Location: Sihaung
(22.8641°N, 94.0549°E)
Time: 12:51:27
(UTC+00:00)

GPS 2-12 Rocket1 - Pass Details

Date: 03 March 2021
Orbit: 586 x 651 km, 20.0° (Epoch: 17 April)

Event Time Altitude Azimuth Distance (km) Brightness Sun altitude
Rises 12:40:41 0° 240° (WSW) 2,922 7.7 -12.9°
Reaches altitude 10° 12:43:12 10° 231° (SW) 2,022 6.5 -13.5°
Maximum altitude 12:47:31 34° 166° (SSE) 1,047 4.1 -14.5°
Enters shadow 12:49:58 21° 116° (ESE) 1,436 4.4 -15.0°
